CW5316 Weather Reports


Display with metric or nautical units.
time (UTC)temp
F
wind
direction
speed
MPH
gust
MPH
rain 1hr
in
rain 24hr
in
rain mn
in
humidity
%
barometer
mb
20260504210040 76 98 1.0 6.0 0.00 0.00 0.00 39 1010.8
20260504205523 76 66 0.0 6.0 0.00 0.00 0.00 39 1010.8
20260504205024 77 0 1.0 7.0 0.00 0.00 0.00 40 1010.9
20260504204543 77 84 1.0 7.0 0.00 0.00 0.00 41 1010.9
20260504204020 76 111 1.0 5.0 0.00 0.00 0.00 40 1010.9
20260504203521 77 299 1.0 8.0 0.00 0.00 0.00 41 1010.8
20260504203042 76 350 2.0 8.0 0.00 0.00 0.00 39 1010.9
20260504202520 76 25 3.0 8.0 0.00 0.00 0.00 39 1010.8
20260504202019 76 167 0.0 6.0 0.00 0.00 0.00 40 1010.8
20260504201548 75 117 0.0 5.0 0.00 0.00 0.00 41 1010.8
20260504201022 75 226 1.0 8.0 0.00 0.00 0.00 43 1010.9
20260504200520 74 89 2.0 8.0 0.00 0.00 0.00 42 1011.0
20260504200038 75 85 2.0 8.0 0.00 0.00 0.00 41 1011.0
20260504195522 75 231 0.0 7.0 0.00 0.00 0.00 43 1011.1
20260504195022 75 275 2.0 7.0 0.00 0.00 0.00 42 1011.0
20260504194535 75 238 1.0 6.0 0.00 0.00 0.00 41 1011.0
20260504194022 75 0 0.0 6.0 0.00 0.00 0.00 41 1011.1
20260504193522 74 71 1.0 6.0 0.00 0.00 0.00 41 1011.0
20260504193043 74 134 2.0 6.0 0.00 0.00 0.00 40 1011.2
20260504192522 73 275 2.0 8.0 0.00 0.00 0.00 41 1011.3
20260504192025 73 213 1.0 8.0 0.00 0.00 0.00 42 1011.3
20260504191551 73 104 2.0 8.0 0.00 0.00 0.00 41 1011.3
20260504191022 72 111 2.0 8.0 0.00 0.00 0.00 41 1011.3
20260504190522 72 161 1.0 6.0 0.00 0.00 0.00 40 1011.4
20260504190043 73 88 1.0 5.0 0.00 0.00 0.00 41 1011.4
20260504185519 73 113 1.0 4.0 0.00 0.00 0.00 41 1011.4
20260504185019 72 59 1.0 4.0 0.00 0.00 0.00 43 1011.4
20260504184552 73 101 0.0 4.0 0.00 0.00 0.00 44 1011.5
20260504184023 72 0 0.0 4.0 0.00 0.00 0.00 46 1011.4
20260504183520 71 0 0.0 4.0 0.00 0.00 0.00 45 1011.5
20260504183034 72 0 0.0 3.0 0.00 0.00 0.00 43 1011.5
20260504182522 71 0 0.0 4.0 0.00 0.00 0.00 43 1011.5
20260504182022 71 231 1.0 4.0 0.00 0.00 0.00 47 1011.6
20260504181547 71 49 2.0 4.0 0.00 0.00 0.00 46 1011.6
20260504181022 72 0 0.0 3.0 0.00 0.00 0.00 50 1011.6
20260504180522 71 0 1.0 4.0 0.00 0.00 0.00 48 1011.6
20260504180044 71 217 1.0 4.0 0.00 0.00 0.00 47 1011.5
20260504175522 70 192 0.0 3.0 0.00 0.00 0.00 49 1011.5
20260504175022 70 230 1.0 3.0 0.00 0.00 0.00 49 1011.5
20260504174541 70 0 0.0 3.0 0.00 0.00 0.00 50 1011.5
20260504174022 69 0 0.0 3.0 0.00 0.00 0.00 48 1011.5
20260504173520 69 0 0.0 3.0 0.00 0.00 0.00 52 1011.4
20260504173038 69 74 0.0 3.0 0.00 0.00 0.00 48 1011.4
20260504172519 69 236 0.0 3.0 0.00 0.00 0.00 47 1011.4
20260504172023 69 0 0.0 4.0 0.00 0.00 0.00 49 1011.4
20260504171544 68 278 1.0 7.0 0.00 0.00 0.00 48 1011.5
20260504171026 68 0 1.0 7.0 0.00 0.00 0.00 48 1011.5
20260504170528 68 0 1.0 3.0 0.00 0.00 0.00 47 1011.4
20260504151022 58 101 1.0 6.0 0.00 0.00 0.00 65 1011.0
20260504150523 58 53 1.0 4.0 0.00 0.00 0.00 66 1011.1
20260504141019 51 0 0.0 2.0 0.00 0.00 0.00 84 1010.7
20260504140523 51 0 0.0 2.0 0.00 0.00 0.00 84 1010.7
20260504130524 50 0 0.0 2.0 0.00 0.00 0.00 85 1010.4
20260504110522 54 0 0.0 3.0 0.00 0.00 0.00 74 1010.5
20260504100522 55 0 0.0 3.0 0.00 0.00 0.00 73 1010.4
20260504081538 58 203 0.0 2.0 0.00 0.00 0.00 64 1010.7
20260504081021 58 194 0.0 3.0 0.00 0.00 0.00 64 1010.7
20260504080523 59 0 0.0 3.0 0.00 0.00 0.00 64 1010.7
20260504050524 60 0 0.0 1.0 0.00 0.00 0.00 67 1010.7
20260504045521 61 0 0.0 1.0 0.00 0.00 0.00 65 1010.9
20260504045020 61 0 0.0 0.0 0.00 0.00 0.00 63 1010.8
20260504044538 60 0 0.0 0.0 0.00 0.00 0.00 63 1010.8
20260504044020 60 0 0.0 0.0 0.00 0.00 0.00 64 1010.7
20260504043522 60 0 0.0 0.0 0.00 0.00 0.00 64 1010.6
20260504043039 61 0 0.0 0.0 0.00 0.00 0.00 65 1010.6
20260504042521 61 0 0.0 0.0 0.00 0.00 0.00 64 1010.5
20260504042020 61 0 0.0 0.0 0.00 0.00 0.00 63 1010.5
20260504041537 61 0 0.0 0.0 0.00 0.00 0.00 62 1010.4
20260504041019 62 0 0.0 0.0 0.00 0.00 0.00 63 1010.4
20260504040522 62 0 0.0 0.0 0.00 0.00 0.00 63 1010.4
20260504040041 62 0 0.0 0.0 0.00 0.00 0.00 63 1010.5
20260504035524 62 0 0.0 0.0 0.00 0.00 0.00 63 1010.3
20260504035018 62 0 0.0 0.0 0.00 0.00 0.00 64 1010.3
20260504034542 63 0 0.0 0.0 0.00 0.00 0.00 63 1010.2
20260504034023 63 0 0.0 0.0 0.00 0.00 0.00 63 1010.3
20260504033519 63 0 0.0 1.0 0.00 0.00 0.00 62 1010.2
20260504033049 64 0 0.0 1.0 0.00 0.00 0.00 61 1010.2
20260504032520 64 252 0.0 1.0 0.00 0.00 0.00 61 1010.1
20260504032021 64 0 0.0 1.0 0.00 0.00 0.00 62 1010.2
20260504031538 64 0 0.0 2.0 0.00 0.00 0.00 60 1010.1
20260504031019 65 0 0.0 2.0 0.00 0.00 0.00 60 1010.1
20260504030519 65 0 0.0 2.0 0.00 0.00 0.00 59 1010.1
20260504030039 65 0 0.0 0.0 0.00 0.00 0.00 59 1010.0
20260504025520 65 0 0.0 0.0 0.00 0.00 0.00 59 1009.9
20260504025022 66 0 0.0 0.0 0.00 0.00 0.00 59 1009.9
20260504024554 66 0 0.0 0.0 0.00 0.00 0.00 59 1009.9
20260504024022 66 0 0.0 0.0 0.00 0.00 0.00 59 1009.9
20260504023521 66 0 0.0 0.0 0.00 0.00 0.00 58 1009.9
20260504023044 67 0 0.0 2.0 0.00 0.00 0.00 58 1010.0
20260504022521 67 0 0.0 2.0 0.00 0.00 0.00 56 1010.0
20260504022020 68 255 0.0 2.0 0.00 0.00 0.00 55 1010.1
20260504021548 68 0 0.0 2.0 0.00 0.00 0.00 53 1010.0
20260504021022 69 255 0.0 1.0 0.00 0.00 0.00 53 1010.1
20260504020520 69 0 0.0 0.0 0.00 0.00 0.00 53 1010.1
20260504020046 70 0 0.0 0.0 0.00 0.00 0.00 51 1010.1
20260504015521 69 0 0.0 1.0 0.00 0.00 0.00 51 1010.1
20260504015022 70 0 0.0 2.0 0.00 0.00 0.00 50 1010.1
20260504014538 70 0 0.0 2.0 0.00 0.00 0.00 48 1010.1
20260504014023 71 0 0.0 2.0 0.00 0.00 0.00 48 1010.2
20260504013522 71 0 0.0 3.0 0.00 0.00 0.00 48 1010.2
20260504013046 72 0 0.0 3.0 0.00 0.00 0.00 47 1010.2
20260504012521 73 270 0.0 3.0 0.00 0.00 0.00 46 1010.2
20260504012022 73 249 0.0 2.0 0.00 0.00 0.00 43 1010.3
20260504011542 74 0 0.0 2.0 0.00 0.00 0.00 43 1010.4
20260504011022 74 263 0.0 2.0 0.00 0.00 0.00 43 1010.4
20260504010520 75 273 0.0 3.0 0.00 0.00 0.00 42 1010.5
20260504010038 76 0 0.0 3.0 0.00 0.00 0.00 41 1010.5
20260504005521 77 0 0.0 3.0 0.00 0.00 0.00 36 1010.6
20260504005020 77 0 0.0 3.0 0.00 0.00 0.00 41 1010.6
20260504004546 78 252 0.0 2.0 0.00 0.00 0.00 41 1010.7
20260504004019 78 0 0.0 3.0 0.00 0.00 0.00 39 1010.7
20260504003520 78 0 0.0 3.0 0.00 0.00 0.00 41 1010.8
20260504003038 78 29 0.0 3.0 0.00 0.00 0.00 42 1010.8
20260504002519 79 0 0.0 3.0 0.00 0.00 0.00 42 1010.8
20260504002019 79 0 0.0 3.0 0.00 0.00 0.00 45 1010.9
20260504001540 79 234 0.0 7.0 0.00 0.00 0.00 42 1010.8
20260504001025 79 94 0.0 7.0 0.00 0.00 0.00 42 1010.9
20260504000524 79 64 1.0 7.0 0.00 0.00 0.00 41 1010.9
20260504000045 80 214 1.0 6.0 0.00 0.00 0.00 40 1011.0
20260503235521 80 269 0.0 3.0 0.00 0.00 0.00 42 1011.0
20260503235019 80 229 0.0 2.0 0.00 0.00 0.00 42 1011.0
20260503234539 80 76 0.0 2.0 0.00 0.00 0.00 42 1011.0
20260503234024 80 0 0.0 2.0 0.00 0.00 0.00 41 1011.0
20260503233519 80 0 0.0 3.0 0.00 0.00 0.00 42 1011.0
20260503233038 81 0 0.0 3.0 0.00 0.00 0.00 41 1011.0
20260503232519 81 0 0.0 3.0 0.00 0.00 0.00 40 1011.1
20260503232036 82 317 1.0 3.0 0.00 0.00 0.00 37 1011.1
20260503231549 82 342 0.0 5.0 0.00 0.00 0.00 38 1011.2
20260503231022 82 0 1.0 7.0 0.00 0.00 0.00 39 1011.2
20260503230521 81 0 0.0 7.0 0.00 0.00 0.00 37 1011.2
20260503230037 81 40 0.0 4.0 0.00 0.00 0.00 38 1011.2
20260503225521 81 130 1.0 4.0 0.00 0.00 0.00 39 1011.3
20260503225021 82 82 0.0 8.0 0.00 0.00 0.00 39 1011.4
20260503224535 81 53 1.0 8.0 0.00 0.00 0.00 38 1011.4
20260503224021 83 196 0.0 3.0 0.00 0.00 0.00 37 1011.5
20260503223524 82 246 0.0 3.0 0.00 0.00 0.00 41 1011.6
20260503223041 82 96 1.0 3.0 0.00 0.00 0.00 37 1011.6
20260503222522 82 0 0.0 3.0 0.00 0.00 0.00 37 1011.6
20260503222019 82 263 0.0 4.0 0.00 0.00 0.00 38 1011.6
20260503221540 82 275 0.0 4.0 0.00 0.00 0.00 37 1011.7
20260503221022 81 288 1.0 3.0 0.00 0.00 0.00 37 1011.6
20260503220520 81 48 1.0 3.0 0.00 0.00 0.00 41 1011.7
20260503220040 80 0 0.0 4.0 0.00 0.00 0.00 40 1011.8
20260503215521 81 0 0.0 4.0 0.00 0.00 0.00 37 1011.8
20260503215023 81 0 0.0 3.0 0.00 0.00 0.00 40 1011.8
20260503214537 81 0 0.0 4.0 0.00 0.00 0.00 39 1011.9
20260503214021 81 0 0.0 6.0 0.00 0.00 0.00 38 1011.9
20260503213521 82 32 1.0 6.0 0.00 0.00 0.00 40 1011.8
20260503213044 81 331 1.0 5.0 0.00 0.00 0.00 42 1011.9
20260503212520 80 271 1.0 5.0 0.00 0.00 0.00 41 1012.0
20260503212019 80 308 0.0 4.0 0.00 0.00 0.00 39 1012.0
20260503211545 79 0 1.0 4.0 0.00 0.00 0.00 41 1012.0
20260503211022 81 0 0.0 4.0 0.00 0.00 0.00 40 1012.1
20260503210520 79 0 0.0 4.0 0.00 0.00 0.00 42 1012.1